Location: Goettingen
(51.5300°N, 9.9433°E)
Time: 08:59:07
(UTC+02:00)

ISS - Pass Details

Date: 14 March 2018
Orbit: 403 x 408 km, 51.6° (Epoch: 24 June)

Event Time Altitude Azimuth Distance (km) Brightness Sun altitude
Exits shadow 03:54:21 27° 90° (E) 823 -1.8 -25.1°
Drops below altitude 10° 03:56:01 10° 92° (E) 1,481 -0.2 -24.9°
Enters shadow 04:52:40 -67° 285° (WNW) 12,216 3.6 -16.9°
